This demonstration page uses our WeatherBlox Daily Observations layout. Learn more.

Left ArrowRight Arrow

41.55636, -103.73856

Hourly Observations for January 28, 2021

Temp ( °F °C ) Dew Point ( °F °C ) Humidity (%) Winds ( mph kmh ) Pressure ( in mb ) Visibility ( mi km ) Precip ( " mm )
12:56 am 00:56 Clear 17 -8.5 10 -12.5 73 73 SW 9 15 30.22 1024 10 16.0934 0 0
1:56 am 01:56 Clear 17 -8.1 10 -12.4 72 72 SW 12 19 30.22 1023 10 16.0934 0 0
2:56 am 02:56 Clear 21 -6.2 8 -13.2 58 58 W 3 6 30.23 1024 10 16.0934 0 0
3:56 am 03:56 Clear 19 -7 9 -12.7 64 64 WSW 8 13 30.24 1024 10 16.0934 0 0
4:56 am 04:56 Clear 21 -5.9 12 -11.2 67 67 WSW 7 11 30.22 1023 10 16.0934 0 0
5:56 am 05:56 Clear 25 -3.9 11 -11.4 56 56 ENE 5 7 30.22 1023 10 16.0934 0 0
6:56 am 06:56 Clear 26 -3.5 15 -9.6 63 63 SW 6 9 30.23 1024 10 16.0934 0 0
7:56 am 07:56 Sunny 21 -6.1 15 -9.5 77 77 ESE 10 17 30.26 1025 10 16.0934 0 0
8:56 am 08:56 Sunny 25 -3.7 15 -9.2 66 66 Calm 30.28 1025 10 16.0934 0 0
9:56 am 09:56 Sunny 34 1.2 20 -6.6 56 56 NE 3 6 30.25 1024 10 16.0934 0 0
10:56 am 10:56 Partly Cloudy 36 2 22 -5.5 58 58 NNE 5 7 30.26 1025 10 16.0934 0 0
11:56 am 11:56 Sunny 47 8.3 20 -6.9 34 34 S 5 7 30.16 1021 10 16.0934 0 0
12:56 pm 12:56 Sunny 49 9.7 20 -6.4 32 32 S 5 7 30.14 1021 10 16.0934 0 0
1:56 pm 13:56 Sunny 49 9.4 21 -6.3 33 33 SSW 14 22 30.11 1020 10 16.0934 0 0
2:56 pm 14:56 Sunny 49 9.4 22 -5.3 35 35 ENE 3 6 30.1 1019 10 16.0934 0 0
3:56 pm 15:56 Sunny 49 9.4 22 -5.6 35 35 S 5 7 30.1 1019 10 16.0934 0 0
4:56 pm 16:56 Sunny 45 7.2 22 -5.5 40 40 SSW 20 31 30.09 1019 10 16.0934 0 0
5:56 pm 17:56 Mostly Cloudy 43 5.9 21 -5.9 43 43 SSW 17 28 30.08 1019 10 16.0934 0 0
6:56 pm 18:56 Mostly Clear 43 6.3 23 -4.8 45 45 SSW 23 37 30.08 1019 10 16.0934 0 0
7:56 pm 19:56 Mostly Cloudy 42 5.5 24 -4.3 50 50 SSW 18 30 30.07 1018 10 16.0934 0 0
8:56 pm 20:56 Mostly Cloudy 42 5.4 26 -3.5 53 53 SSW 22 35 30.05 1018 10 16.0934 0 0
9:56 pm 21:56 Mostly Clear 41 4.8 24 -4.5 51 51 SSW 22 35 30.02 1017 10 16.0934 0 0
10:56 pm 22:56 Clear 38 3.3 22 -5.5 53 53 WSW 10 17 30.02 1017 10 16.0934 0 0
11:56 pm 23:56 Clear 37 2.7 20 -6.6 51 51 SSW 7 11 29.97 1015 10 16.0934 0 0

Powered by AerisWeather